Location: Munkebjergskolens Observatorium
(55.3864°N, 10.3987°E)
Time: 05:11:39
(UTC+02:00)

CAS-6 - Pass Details

Date: 01 April 2023
Orbit: 610 x 632 km, 97.9° (Epoch: 31 May)

Event Time Altitude Azimuth Distance (km) Brightness Sun altitude
Exits shadow 22:00:10 21° 78° (ENE) 1,425 ? -17.0°
Maximum altitude 22:01:12 23° 57° (ENE) 1,354 ? -17.1°
Drops below altitude 10° 22:04:36 10° 6° (N) 2,015 ? -17.5°
Sets 22:07:10 0° 352° (N) 2,931 ? -17.8°
